Location: Mohawk View
(42.7837°N, 73.7885°W)
Time: 20:42:18
(UTC+00:00)

deb Kosmos-1375 - Visible Passes

Search period start: 22 January 2022 00:00
Search period end: 01 February 2022 00:00
Orbit: 851 x 906 km, 65.8° (Epoch: 22 January)

Date Brightness Start Highest point End Pass type
(mag) Time Alt. Az. Time Alt. Az. Time Alt. Az.
22 Jan ? 00:24:45 10° NNW 00:26:45 18° N 00:26:45 18° N visible
23 Jan ? 00:20:29 10° NNW 00:23:05 21° N 00:23:05 21° N visible
23 Jan ? 02:05:33 10° NW 02:05:41 11° NW 02:05:41 11° NW visible
24 Jan ? 00:16:15 10° NNW 00:19:28 25° NNE 00:19:28 25° NNE visible
24 Jan ? 02:01:29 10° NW 02:02:04 13° NW 02:02:04 13° NW visible
24 Jan ? 22:29:07 10° NNE 22:30:03 10° NNE 22:30:59 10° NNE visible
25 Jan ? 00:12:00 10° NNW 00:15:56 31° NNE 00:15:56 31° NNE visible
25 Jan ? 01:57:27 10° NW 01:58:34 16° NW 01:58:34 16° NW visible
25 Jan ? 22:24:16 10° N 22:26:11 11° NNE 22:28:06 10° NE visible
26 Jan ? 00:07:47 10° NNW 00:12:32 39° NNE 00:12:32 39° NNE visible
26 Jan ? 01:53:26 10° NW 01:55:09 19° WNW 01:55:09 19° WNW visible
27 Jan ? 00:03:36 10° NNW 00:09:16 48° NE 00:09:16 48° NE visible
27 Jan ? 01:49:29 10° NW 01:51:54 22° WNW 01:51:54 22° WNW visible
27 Jan ? 23:59:24 10° NNW 00:05:12 55° NE 00:06:11 49° E visible
28 Jan ? 01:45:34 10° NW 01:48:50 23° W 01:48:50 23° W visible
28 Jan ? 23:55:14 10° NNW 00:01:06 65° NE 00:03:21 38° ESE visible
29 Jan ? 01:41:44 10° WNW 01:46:01 22° WSW 01:46:01 22° WSW visible
29 Jan ? 23:51:04 10° NNW 23:56:59 76° ENE 00:00:53 23° SE visible
30 Jan ? 01:38:00 10° WNW 01:41:50 18° WSW 01:43:36 16° SW visible
30 Jan ? 23:46:56 10° NNW 23:52:51 88° ENE 23:58:51 10° SSE visible
31 Jan ? 01:34:25 10° WNW 01:37:34 15° WSW 01:40:43 10° SW visible
31 Jan ? 23:42:47 10° NW 23:48:43 79° WSW 23:54:41 10° SSE visible
